Weather History for Washington, PA

Change the Weather History Date:

Thursday, March 13, 2014

  Actual Average Record
Temperature  
Mean Temperature 17 °F -  
Max Temperature 26 °F 45 °F 77 °F (2006)
Min Temperature 8 °F 26 °F 8 °F (2014)
Degree Days  
Heating Degree Days 48    
Moisture  
Dew Point 6 °F    
Average Humidity 60    
Maximum Humidity 79    
Minimum Humidity 43    
Precipitation  
Precipitation 0.00 in - - ()
Sea Level Pressure  
Sea Level Pressure 30.02 in    
Wind  
Wind Speed 10 mph (West)    
Max Wind Speed 17 mph    
Max Gust Speed 24 mph    
Visibility 9 miles    
Events      
Averages and records for this station are not official NWS values.
T = Trace of Precipitation, MM = Missing Value Source: NWS Daily Summary

Daily Weather History Graph

Daily Weather History Graph

Search for Another Location

Airport:

Trip Planner

Search our weather history database for the weather conditions in past years. The results will help you decide how hot, cold, wet, or windy it might be!

Date:

Astronomy

Mar. 13, 2014 Rise Set
Actual Time 7:35 AM EDT 7:25 PM EDT
Civil Twilight 7:08 AM EDT 7:52 PM EDT
Nautical Twilight 6:37 AM EDT 8:24 PM EDT
Astronomical Twilight 6:05 AM EDT 8:56 PM EDT
Moon 4:50 PM EDT (3/13) 5:42 AM EDT (3/13)
Length of Visible Light 12h 44m
Length of Day
11h 50m
Waxing Gibbous, 91% of the Moon is Illuminated
Mar 13
Waxing Gibbous
Mar 16
Full
Mar 23
Last Quarter
Mar 30
New
Apr 7
First Quarter

Hourly Weather History & Observations

Time (EDT) Temp. Windchill Dew Point Humidity Pressure Visibility Wind Dir Wind Speed Gust Speed Precip Events Conditions
12:15 AM 17.6 °F 6.4 °F 10.4 °F 73% 29.79 in 5.0 mi WNW 9.2 mph 23.0 mph N/A   Overcast
12:35 AM 15.8 °F 1.4 °F 8.6 °F 73% 29.81 in 8.0 mi NW 13.8 mph 19.6 mph N/A   Overcast
12:55 AM 15.8 °F 4.2 °F 8.6 °F 73% 29.80 in 9.0 mi WNW 9.2 mph 20.7 mph N/A   Overcast
1:15 AM 15.8 °F 2.1 °F 6.8 °F 68% 29.80 in 9.0 mi NW 12.7 mph 19.6 mph N/A   Overcast
1:35 AM 14.0 °F 2.0 °F 6.8 °F 73% 29.81 in 3.0 mi WNW 9.2 mph 23.0 mph N/A   Overcast
1:55 AM 12.2 °F -1.8 °F 6.8 °F 79% 29.82 in 5.0 mi NW 11.5 mph - N/A   Overcast
2:15 AM 12.2 °F -4.8 °F 3.2 °F 67% 29.83 in 10.0 mi NW 17.3 mph 24.2 mph N/A   Overcast
2:35 AM 12.2 °F -0.2 °F 1.4 °F 62% 29.84 in 10.0 mi NW 9.2 mph 21.9 mph N/A   Overcast
2:55 AM 12.2 °F -1.8 °F 1.4 °F 62% 29.84 in 10.0 mi WNW 11.5 mph 18.4 mph N/A   Overcast
3:15 AM 10.4 °F -5.4 °F 1.4 °F 67% 29.85 in 10.0 mi West 13.8 mph 18.4 mph N/A   Overcast
3:35 AM 12.2 °F -0.2 °F 1.4 °F 62% 29.85 in 10.0 mi West 9.2 mph 20.7 mph N/A   Overcast
3:55 AM 10.4 °F -3.3 °F 1.4 °F 67% 29.85 in 10.0 mi WNW 10.4 mph 19.6 mph N/A   Overcast
4:15 AM 12.2 °F 0.7 °F 3.2 °F 67% 29.86 in 4.0 mi WNW 8.1 mph - N/A   Overcast
4:35 AM 10.4 °F -4.1 °F 3.2 °F 73% 29.88 in 10.0 mi NW 11.5 mph 17.3 mph N/A   Overcast
4:55 AM 10.4 °F -1.5 °F 1.4 °F 67% 29.89 in 10.0 mi WNW 8.1 mph - N/A   Overcast
5:15 AM 10.4 °F -1.5 °F 1.4 °F 67% 29.90 in 10.0 mi NW 8.1 mph - N/A   Overcast
5:35 AM 10.4 °F -0.4 °F 1.4 °F 67% 29.91 in 7.0 mi WNW 6.9 mph - N/A   Overcast
5:55 AM 10.4 °F -3.3 °F 1.4 °F 67% 29.92 in 9.0 mi NNW 10.4 mph - N/A   Overcast
6:15 AM 10.4 °F 2.2 °F 1.4 °F 67% 29.93 in 5.0 mi NW 4.6 mph - N/A   Overcast
6:35 AM 10.4 °F -0.4 °F 3.2 °F 73% 29.94 in 8.0 mi WNW 6.9 mph - N/A   Overcast
6:55 AM 10.4 °F -0.4 °F 1.4 °F 67% 29.95 in 10.0 mi WNW 6.9 mph 16.1 mph N/A   Mostly Cloudy
7:15 AM 8.6 °F -3.7 °F 1.4 °F 73% 29.96 in 10.0 mi West 8.1 mph - N/A   Mostly Cloudy
7:35 AM 10.4 °F 2.2 °F 1.4 °F 67% 29.97 in 10.0 mi West 4.6 mph - N/A   Mostly Cloudy
7:55 AM 8.6 °F 0.1 °F 1.4 °F 73% 29.98 in 10.0 mi West 4.6 mph - N/A   Mostly Cloudy
8:15 AM 10.4 °F -1.5 °F 1.4 °F 67% 29.99 in 10.0 mi WNW 8.1 mph - N/A   Overcast
8:35 AM 10.4 °F 2.2 °F 1.4 °F 67% 30.00 in 10.0 mi WNW 4.6 mph - N/A   Overcast
8:55 AM 12.2 °F -1.8 °F 3.2 °F 67% 30.01 in 10.0 mi WNW 11.5 mph - N/A   Overcast
9:15 AM 12.2 °F 0.7 °F 3.2 °F 67% 30.03 in 9.0 mi WNW 8.1 mph - N/A   Overcast
9:35 AM 12.2 °F -1.0 °F 5.0 °F 73% 30.04 in 2.5 mi West 10.4 mph 16.1 mph N/A   Overcast
9:55 AM 12.2 °F 1.7 °F 5.0 °F 73% 30.05 in 3.0 mi WNW 6.9 mph 16.1 mph N/A   Overcast
10:15 AM 14.0 °F -0.2 °F 5.0 °F 67% 30.06 in 8.0 mi WNW 12.7 mph 17.3 mph N/A   Overcast
10:35 AM 15.8 °F 2.1 °F 5.0 °F 62% 30.07 in 10.0 mi NW 12.7 mph 19.6 mph N/A   Overcast
10:55 AM 15.8 °F 0.9 °F 3.2 °F 58% 30.08 in 5.0 mi West 15.0 mph 19.6 mph N/A   Overcast
11:15 AM 15.8 °F 2.1 °F 6.8 °F 68% 30.08 in 10.0 mi WNW 12.7 mph 18.4 mph N/A   Overcast
11:35 AM 15.8 °F 3.4 °F 5.0 °F 62% 30.08 in 9.0 mi WNW 10.4 mph 17.3 mph N/A   Overcast
11:55 AM 17.6 °F 3.2 °F 6.8 °F 63% 30.09 in 10.0 mi WNW 15.0 mph 24.2 mph N/A   Overcast
12:15 PM 17.6 °F 3.2 °F 5.0 °F 58% 30.09 in 10.0 mi WNW 15.0 mph 18.4 mph N/A   Mostly Cloudy
12:35 PM 17.6 °F 3.7 °F 6.8 °F 63% 30.10 in 10.0 mi West 13.8 mph 24.2 mph N/A   Mostly Cloudy
12:55 PM 19.4 °F 5.0 °F 6.8 °F 58% 30.10 in 10.0 mi WSW 16.1 mph 24.2 mph N/A   Mostly Cloudy
1:15 PM 19.4 °F 6.0 °F 6.8 °F 58% 30.11 in 10.0 mi WSW 13.8 mph 20.7 mph N/A   Mostly Cloudy
1:35 PM 21.2 °F 7.8 °F 8.6 °F 58% 30.10 in 10.0 mi WSW 15.0 mph 24.2 mph N/A   Mostly Cloudy
1:55 PM 21.2 °F 8.3 °F 6.8 °F 54% 30.10 in 10.0 mi WNW 13.8 mph 19.6 mph N/A   Scattered Clouds
2:15 PM 21.2 °F 10.9 °F 8.6 °F 58% 30.10 in 10.0 mi West 9.2 mph 18.4 mph N/A   Mostly Cloudy
2:35 PM 21.2 °F 9.5 °F 8.6 °F 58% 30.09 in 10.0 mi NW 11.5 mph 19.6 mph N/A   Mostly Cloudy
2:55 PM 23.0 °F 12.4 °F 8.6 °F 54% 30.08 in 10.0 mi WNW 10.4 mph - N/A   Mostly Cloudy
3:15 PM 24.8 °F 13.4 °F 8.6 °F 50% 30.08 in 10.0 mi West 12.7 mph 20.7 mph N/A   Partly Cloudy
3:35 PM 24.8 °F 12.9 °F 10.4 °F 54% 30.08 in 10.0 mi WNW 13.8 mph 20.7 mph N/A   Partly Cloudy
3:55 PM 24.8 °F 13.4 °F 6.8 °F 46% 30.08 in 10.0 mi WNW 12.7 mph 19.6 mph N/A   Partly Cloudy
4:15 PM 26.6 °F 18.2 °F 6.8 °F 43% 30.08 in 10.0 mi West 8.1 mph - N/A   Clear
4:35 PM 26.6 °F 15.7 °F 6.8 °F 43% 30.09 in 10.0 mi West 12.7 mph 19.6 mph N/A   Clear
4:55 PM 26.6 °F 15.2 °F 6.8 °F 43% 30.08 in 10.0 mi West 13.8 mph 17.3 mph N/A   Clear
5:15 PM 26.6 °F 17.5 °F 6.8 °F 43% 30.09 in 10.0 mi West 9.2 mph 16.1 mph N/A   Clear
5:35 PM 26.6 °F 16.8 °F 6.8 °F 43% 30.09 in 10.0 mi West 10.4 mph 23.0 mph N/A   Clear
5:55 PM 26.6 °F 15.2 °F 6.8 °F 43% 30.09 in 10.0 mi WSW 13.8 mph 19.6 mph N/A   Clear
6:15 PM 26.6 °F 15.2 °F 6.8 °F 43% 30.09 in 10.0 mi WSW 13.8 mph 17.3 mph N/A   Clear
6:35 PM 26.6 °F 15.2 °F 6.8 °F 43% 30.10 in 10.0 mi WSW 13.8 mph 18.4 mph N/A   Clear
6:55 PM 26.6 °F 16.2 °F 6.8 °F 43% 30.10 in 10.0 mi West 11.5 mph 18.4 mph N/A   Clear
7:15 PM 26.6 °F 16.2 °F 6.8 °F 43% 30.12 in 10.0 mi West 11.5 mph 19.6 mph N/A   Clear
7:35 PM 24.8 °F 16.1 °F 5.0 °F 43% 30.12 in 10.0 mi West 8.1 mph - N/A   Clear
7:55 PM 24.8 °F 20.5 °F 5.0 °F 43% 30.12 in 10.0 mi WSW 3.5 mph - N/A   Clear
8:15 PM 24.8 °F 20.5 °F 6.8 °F 46% 30.12 in 10.0 mi WSW 3.5 mph - N/A   Clear
8:35 PM 23.0 °F 18.4 °F 6.8 °F 50% 30.12 in 10.0 mi SW 3.5 mph - N/A   Clear
8:55 PM 21.2 °F - 6.8 °F 54% 30.13 in 10.0 mi Calm Calm - N/A   Clear
9:15 PM 21.2 °F - 8.6 °F 58% 30.13 in 10.0 mi Calm Calm - N/A   Clear
9:35 PM 19.4 °F - 10.4 °F 68% 30.13 in 10.0 mi Calm Calm - N/A   Scattered Clouds
9:55 PM 19.4 °F 14.3 °F 12.2 °F 74% 30.13 in 10.0 mi SSW 3.5 mph - N/A   Overcast
10:15 PM 21.2 °F 14.9 °F 10.4 °F 63% 30.12 in 10.0 mi SSW 4.6 mph - N/A   Overcast
10:35 PM 24.8 °F 19.1 °F 10.4 °F 54% 30.12 in 10.0 mi SSW 4.6 mph - N/A   Overcast
10:55 PM 24.8 °F 19.1 °F 8.6 °F 50% 30.12 in 10.0 mi SSW 4.6 mph - N/A   Overcast
11:15 PM 24.8 °F - 10.4 °F 54% 30.11 in 10.0 mi Calm Calm - N/A   Overcast
11:35 PM 24.8 °F 19.1 °F 10.4 °F 54% 30.11 in 10.0 mi South 4.6 mph - N/A   Overcast
11:55 PM 24.8 °F 20.5 °F 10.4 °F 54% 30.11 in 10.0 mi SSW 3.5 mph - N/A   Overcast